TimeCDT,TemperatureF,Dew PointF,Humidity,Sea Level PressureIn,VisibilityMPH,Wind Direction,Wind SpeedMPH,Gust SpeedMPH,PrecipitationIn,Events,Conditions,WindDirDegrees,DateUTC
12:46 AM,73.4,71.6,94,29.93,4.0,Calm,Calm,-,N/A,Fog,Patches of Fog,0,2013-07-21 05:46:00
12:53 AM,72.0,71.1,97,29.90,5.0,Calm,Calm,-,N/A,Fog,Patches of Fog,0,2013-07-21 05:53:00
1:26 AM,71.6,71.6,100,29.91,3.0,Calm,Calm,-,N/A,Fog,Patches of Fog,0,2013-07-21 06:26:00
1:33 AM,71.6,71.6,100,29.91,2.0,SW,8.1,-,N/A,Fog,Patches of Fog,230,2013-07-21 06:33:00
1:44 AM,73.4,71.6,94,29.91,2.0,SW,5.8,-,N/A,Fog,Patches of Fog,220,2013-07-21 06:44:00
1:53 AM,73.0,72.0,96,29.88,0.5,SSW,4.6,-,N/A,Fog,Fog,210,2013-07-21 06:53:00
2:00 AM,73.4,71.6,94,29.91,0.2,SSW,5.8,-,N/A,Fog,Fog,200,2013-07-21 07:00:00
2:07 AM,73.4,71.6,94,29.92,0.5,SSW,6.9,-,N/A,Fog,Fog,200,2013-07-21 07:07:00
2:21 AM,73.4,71.6,94,29.92,2.0,South,4.6,-,N/A,Fog,Patches of Fog,190,2013-07-21 07:21:00
2:34 AM,71.6,71.6,100,29.92,6.0,SSW,4.6,-,N/A,Fog,Patches of Fog,210,2013-07-21 07:34:00
2:53 AM,71.1,70.0,96,29.89,7.0,SSW,4.6,-,N/A,Fog,Patches of Fog,210,2013-07-21 07:53:00
3:53 AM,70.0,69.1,97,29.87,8.0,Calm,Calm,-,N/A,,Mostly Cloudy,0,2013-07-21 08:53:00
4:53 AM,70.0,68.0,93,29.85,8.0,Calm,Calm,-,N/A,,Mostly Cloudy,0,2013-07-21 09:53:00
5:53 AM,70.0,66.9,90,29.86,10.0,SW,5.8,-,N/A,,Mostly Cloudy,230,2013-07-21 10:53:00
6:53 AM,71.1,68.0,90,29.88,10.0,West,3.5,-,N/A,,Overcast,270,2013-07-21 11:53:00
7:53 AM,71.1,68.0,90,29.88,10.0,SSW,4.6,-,0.00,,Mostly Cloudy,200,2013-07-21 12:53:00
8:53 AM,73.9,69.1,85,29.88,10.0,SSW,8.1,-,N/A,,Mostly Cloudy,210,2013-07-21 13:53:00
9:06 AM,73.4,69.8,88,29.92,10.0,South,9.2,-,N/A,,Mostly Cloudy,190,2013-07-21 14:06:00
9:53 AM,75.9,68.0,76,29.88,10.0,South,8.1,-,N/A,,Mostly Cloudy,190,2013-07-21 14:53:00
10:53 AM,75.0,68.0,79,29.90,10.0,South,5.8,-,N/A,,Mostly Cloudy,190,2013-07-21 15:53:00
11:53 AM,78.1,68.0,71,29.89,10.0,South,6.9,-,N/A,,Overcast,180,2013-07-21 16:53:00
12:53 PM,79.0,69.1,72,29.87,10.0,SSW,9.2,-,N/A,,Overcast,200,2013-07-21 17:53:00
1:53 PM,82.0,68.0,62,29.85,10.0,Variable,4.6,-,N/A,,Overcast,0,2013-07-21 18:53:00
2:53 PM,84.9,66.9,55,29.83,10.0,South,8.1,-,N/A,,Mostly Cloudy,190,2013-07-21 19:53:00
3:53 PM,84.0,66.0,55,29.82,10.0,SSW,4.6,-,N/A,,Mostly Cloudy,210,2013-07-21 20:53:00
4:53 PM,87.1,66.0,49,29.80,10.0,Variable,3.5,-,N/A,,Scattered Clouds,0,2013-07-21 21:53:00
5:53 PM,86.0,64.9,49,29.78,10.0,SE,4.6,-,N/A,,Partly Cloudy,140,2013-07-21 22:53:00
6:53 PM,86.0,64.9,49,29.79,10.0,SSE,5.8,-,N/A,,Scattered Clouds,160,2013-07-21 23:53:00
7:53 PM,84.0,66.0,55,29.79,10.0,South,3.5,-,N/A,,Partly Cloudy,180,2013-07-22 00:53:00
8:53 PM,80.1,66.0,62,29.81,10.0,South,3.5,-,N/A,,Scattered Clouds,190,2013-07-22 01:53:00
9:53 PM,77.0,66.0,69,29.82,10.0,SE,4.6,-,N/A,,Partly Cloudy,140,2013-07-22 02:53:00
10:53 PM,77.0,66.9,71,29.82,10.0,SE,8.1,-,N/A,,Clear,130,2013-07-22 03:53:00
11:53 PM,75.9,70.0,82,29.83,10.0,ESE,3.5,-,N/A,,Clear,120,2013-07-22 04:53:00